Flag for Norway Weather past 2 weeks in Sandnessjøen, Norway

Now
52 °F

Sunny.


Feels Like: 50 °F
Forecast: 46 / 54 °F
Wind: 6 mph from Northwest

Location: Sandnessjoen / Stokka

Current Time: Sep 30, 2014 at 2:46:40 PM

Latest Report: Sep 30, 2014 at 1:50 PM


Visibility: 10 mi

Pressure: 30.24 "Hg

Humidity: 58%

Dew point: 37 °F

Location of SandnessjøenLocation

Historic Weather in Sandnessjøen — Graph

°F

Sandnessjøen temperature yesterday

Maximum temperature yesterday: 50 °F (at 4:50 AM)
Minimum temperature yesterday: 45 °F (at 8:50 PM)
Average temperature yesterday: 49 °F

Past Weeks' High & Low Weather Summary

 TemperatureHumidityPressure
High63 °F (Sep 16, 4:20 PM)100% (Sep 16, 8:20 AM)32.55 "Hg (Sep 16, 8:20 AM)
Low36 °F (Sep 23, 5:20 AM)37% (Sep 23, 3:20 PM)28.94 "Hg (Sep 26, 8:50 PM)
Average48 °F74%29.88 "Hg
* Reported Sep 15 1:20 PM — Sep 30 1:50 PM, Sandnessjøen, Weather by CustomWeather, © 2014

Note: Actual official high and low records may vary slightly from our data, if they occured in-between our weather recording intervals... More about our weather records

Advertising

Sandnessjøen weather history for previous 24 hours

 ConditionsComfort  
Time TempWeatherWind HumidityBarometerVisibility
1:50 PM
Sep 30
52 °FSunny.6 mph58%30.24 "Hg10 mi
1:20 PM50 °FSunny.3 mph62%30.24 "Hg10 mi
12:50 PM50 °FSunny.5 mph67%30.24 "Hg10 mi
12:20 PM50 °FPassing clouds.3 mph71%30.24 "HgN/A
11:50 AM50 °FSunny.2 mph71%30.27 "Hg10 mi
11:20 AM48 °FSunny.7 mph76%30.24 "Hg10 mi
10:50 AM46 °FSunny.2 mph82%30.27 "Hg10 mi
10:20 AM46 °FSunny.5 mph82%30.27 "Hg10 mi
9:50 AM45 °FSunny.2 mph81%30.27 "Hg10 mi
9:20 AM43 °FPassing clouds.7 mph87%30.27 "HgN/A
8:50 AM41 °FPassing clouds.5 mph93%30.27 "HgN/A
8:20 AM39 °FPassing clouds.6 mph93%30.27 "HgN/A
7:50 AM39 °FPassing clouds.3 mph93%30.27 "HgN/A
7:20 AM41 °FPassing clouds.2 mph81%30.27 "HgN/A
6:50 AM41 °FPassing clouds.3 mph93%30.27 "HgN/A
6:20 AM43 °FPassing clouds.5 mph87%30.27 "HgN/A
5:50 AM39 °FPassing clouds.7 mph93%30.24 "HgN/A
5:20 AM39 °FPassing clouds.2 mph93%30.24 "HgN/A
4:50 AM43 °FPassing clouds.3 mph81%30.24 "HgN/A
10:20 PM
Sep 29
45 °FSprinkles. Partly cloudy.3 mph81%30.12 "HgN/A
9:50 PM46 °FSprinkles. Partly cloudy.13 mph76%30.12 "HgN/A
9:20 PM48 °FPassing clouds.7 mph66%30.12 "HgN/A
8:50 PM45 °FPassing clouds.5 mph81%30.09 "HgN/A
8:20 PM46 °FSprinkles. Passing clouds.12 mph76%30.09 "HgN/A
7:50 PM48 °FPassing clouds.8 mph66%30.07 "HgN/A
7:20 PM48 °FScattered clouds.9 mph66%30.04 "HgN/A
6:50 PM48 °FScattered clouds.9 mph66%30.04 "HgN/A
5:50 PM50 °FScattered showers. Scattered clouds.10 mph62%30.01 "HgN/A
4:50 PM50 °FScattered showers. Scattered clouds.7 mph67%29.95 "HgN/A
4:20 PM50 °FScattered showers. Broken clouds.6 mph71%29.95 "HgN/A
3:50 PM50 °FScattered showers. Broken clouds.7 mph71%29.92 "HgN/A
3:20 PM50 °FScattered showers. Broken clouds.9 mph67%29.89 "HgN/A
2:50 PM50 °FScattered showers. Scattered clouds.12 mph71%29.89 "HgN/A
Weather by CustomWeather, © 2014

See weather overviewHow to use our weather pages